Waarnemingen

Advertentie
Mijn weer
Exeter Airport No. 2, Groot Brittannië (3844): temperatuur & dauwpunt: 15.01.2021 11:00:00 - 21.01.2021 11:00:00 (GMT)Exeter Airport No. 2, Groot Brittannië (3844): temperatuur -20cm & temperatuur -100cm: 15.01.2021 11:00:00 - 21.01.2021 11:00:00 (GMT)Exeter Airport No. 2, Groot Brittannië (3844): windsnelheid & windstoten: 15.01.2021 11:00:00 - 21.01.2021 11:00:00 (GMT)Exeter Airport No. 2, Groot Brittannië (3844): windrichting: 15.01.2021 11:00:00 - 21.01.2021 11:00:00 (GMT)Exeter Airport No. 2, Groot Brittannië (3844): luchtdruk: 15.01.2021 11:00:00 - 21.01.2021 11:00:00 (GMT)Exeter Airport No. 2, Groot Brittannië (3844): zicht: 15.01.2021 11:00:00 - 21.01.2021 11:00:00 (GMT)Exeter Airport No. 2, Groot Brittannië (3844): Zonneschijnduur: 15.01.2021 11:00:00 - 21.01.2021 11:00:00 (GMT)Exeter Airport No. 2, Groot Brittannië (3844): neerslag: 15.01.2021 11:00:00 - 21.01.2021 11:00:00 (GMT)
Datum & Tijd tt [°C] td [°C] tt -20cm [°C] tt -100cm [°C] ff [km/u] ff [kn] fx [km/u] fx [kn] dd ppp [hPa] vv [km] sd [min] rr [mm]
21.01.2021 11:00:00 7,0 3,2 - - 18 10 - - ZW 987,5 35 0 0,0
21.01.2021 10:00:00 5,9 2,9 - - 18 10 - - ZZW 987,8 35 0 0,0
21.01.2021 09:00:00 4,9 2,1 8,0 8,2 21 11 - - ZW 988,1 50 0 0,2
21.01.2021 08:00:00 5,0 2,1 - - 28 15 52 28 ZW 987,9 65 0 0,2
21.01.2021 07:00:00 5,9 1,0 - - 35 19 48 26 ZW 987,4 75 0 0,0
21.01.2021 06:00:00 5,0 2,2 - - 24 13 - - ZW 987,3 45 0 0,0
21.01.2021 05:00:00 4,3 2,0 - - 18 10 - - ZW 987,0 50 0 0,2
21.01.2021 04:00:00 4,3 1,8 - - 18 10 50 27 ZW 986,6 60 0 0,0
21.01.2021 03:00:00 3,4 1,2 - - 15 8 - - ZW 986,0 45 0 0,0
21.01.2021 02:00:00 4,3 1,7 - - 22 12 - - WZW 985,3 50 0 0,0
21.01.2021 01:00:00 4,7 1,9 - - 18 10 - - WZW 984,3 50 0 0,0
21.01.2021 00:00:00 4,4 2,3 - - 18 10 - - WZW 983,0 45 - 0,0
20.01.2021 23:00:00 4,5 2,4 - - 22 12 50 27 W 981,2 60 0 0,0
20.01.2021 22:00:00 4,4 2,9 - - 26 14 46 25 W 979,2 75 0 0,2
20.01.2021 21:00:00 4,8 3,9 - - 21 11 63 34 W 978,3 24 0 3,4
20.01.2021 20:00:00 10,3 10,0 - - 21 11 46 25 Z 974,9 1,8 0 3,0
20.01.2021 19:00:00 10,1 9,7 - - 28 15 52 28 Z 976,3 1,8 0 2,2
20.01.2021 18:00:00 10,3 9,7 - - 26 14 52 28 Z 978,1 4,8 0 1,2
20.01.2021 17:00:00 10,3 9,6 - - 22 12 - - Z 979,5 5 0 0,2
20.01.2021 16:00:00 10,6 9,7 - - 24 13 - - Z 980,8 6 0 0,2
20.01.2021 15:00:00 10,8 9,9 - - 22 12 - - Z 981,8 5 0 0,2
20.01.2021 14:00:00 10,5 9,7 - - 24 13 - - Z 982,8 3,5 0 0,6
20.01.2021 13:00:00 10,6 9,6 - - 24 13 46 25 Z 984,2 8 0 0,4
20.01.2021 12:00:00 10,6 9,5 - - 26 14 - - Z 985,1 7 0 0,6
20.01.2021 11:00:00 10,4 9,8 - - 24 13 - - Z 986,4 2,1 0 1,0
20.01.2021 10:00:00 10,4 9,7 - - 26 14 46 25 Z 987,1 2,9 0 0,4
20.01.2021 09:00:00 10,5 9,8 7,9 8,0 24 13 48 26 Z 987,6 4,6 0 0,2
20.01.2021 08:00:00 10,9 10,2 - - 26 14 - - ZZW 988,4 2,6 0 0,2
20.01.2021 07:00:00 11,0 10,2 - - 26 14 - - ZZW 988,6 4,6 0 1,4
20.01.2021 06:00:00 10,8 10,1 - - 21 11 - - Z 989,6 4,8 0 0,4
20.01.2021 05:00:00 11,2 10,4 - - 26 14 - - ZZW 990,7 5 0 0,6
20.01.2021 04:00:00 11,5 10,7 - - 26 14 - - ZZW 991,7 2,6 0 0,2
20.01.2021 03:00:00 11,6 10,7 - - 28 15 - - ZZW 992,2 5 0 0,2
20.01.2021 02:00:00 11,7 10,7 - - 24 13 - - ZZW 992,9 25 0 0,2
20.01.2021 01:00:00 11,4 10,7 - - 21 11 - - ZZW 993,6 4,8 0 0,2
20.01.2021 00:00:00 11,5 10,8 - - 26 14 46 25 ZZW 994,7 5 - 1,8
19.01.2021 23:00:00 11,4 10,6 - - 21 11 - - ZZW 995,1 7 0 0,4
19.01.2021 22:00:00 11,3 10,6 - - 22 12 - - ZZW 996,0 10 0 0,4
19.01.2021 21:00:00 11,1 10,5 - - 24 13 - - ZZW 996,8 3,7 0 0,4
19.01.2021 20:00:00 10,9 10,3 - - 24 13 - - ZZW 997,7 3,7 0 0,4
19.01.2021 19:00:00 10,7 10,1 - - 24 13 - - ZZW 998,6 4,7 0 0,2
19.01.2021 18:00:00 10,5 9,6 - - 26 14 - - ZZW 999,5 5 0 0,0
19.01.2021 17:00:00 10,3 9,4 - - 26 14 - - ZZW 1000,3 5 0 0,2
19.01.2021 16:00:00 10,2 9,2 - - 24 13 - - ZZW 1001,3 7 0 0,0
19.01.2021 15:00:00 10,1 9,1 - - 26 14 48 26 ZZW 1002,1 3,9 0 0,0
19.01.2021 14:00:00 10,5 8,8 - - 28 15 - - ZZW 1003,3 22 0 0,0
19.01.2021 13:00:00 10,3 8,9 - - 28 15 46 25 ZZW 1004,8 8 0 0,0
19.01.2021 12:00:00 10,2 8,4 - - 29 16 46 25 ZZW 1005,9 5 0 0,0
19.01.2021 11:00:00 10,2 8,1 - - 22 12 - - ZZW 1006,9 40 0 0,0
19.01.2021 10:00:00 10,4 7,3 - - 22 12 - - ZW 1007,5 55 6 0,0
19.01.2021 09:00:00 10,1 7,6 7,2 8,0 34 18 50 27 ZW 1008,0 70 0 0,0
19.01.2021 08:00:00 10,8 9,2 - - 21 11 - - ZW 1008,0 75 0 0,0
19.01.2021 07:00:00 11,1 9,1 - - 24 13 - - WZW 1008,6 65 0 0,0
19.01.2021 06:00:00 11,1 9,6 - - 18 10 - - WZW 1009,0 70 0 0,0
19.01.2021 05:00:00 11,3 9,6 - - 21 11 - - WZW 1009,2 55 0 0,2
19.01.2021 04:00:00 11,5 9,4 - - 24 13 - - WZW 1009,6 75 0 0,0
19.01.2021 03:00:00 11,7 9,9 - - 26 14 - - WZW 1009,7 75 0 0,0
19.01.2021 02:00:00 11,2 10,1 - - 21 11 - - WZW 1009,8 75 0 0,4
19.01.2021 01:00:00 11,3 10,1 - - 16 9 - - ZW 1010,0 75 0 0,0
19.01.2021 00:00:00 10,9 10,1 - - 16 9 - - ZZW 1010,9 14 - 0,6
18.01.2021 23:00:00 10,7 9,8 - - 16 9 - - ZZW 1011,6 8 0 0,4
18.01.2021 22:00:00 10,7 9,6 - - 18 10 - - ZZW 1012,8 45 0 0,0
18.01.2021 21:00:00 10,3 9,5 - - 18 10 - - ZZW 1013,7 5 0 0,0
18.01.2021 20:00:00 10,4 9,5 - - 16 9 - - ZZW 1014,8 30 0 0,2
18.01.2021 19:00:00 9,7 9,4 - - 11 6 - - Z 1015,8 16 0 0,0
18.01.2021 18:00:00 9,2 8,9 - - 13 7 - - Z 1016,6 4,2 0 0,2
18.01.2021 17:00:00 8,6 8,1 - - 11 6 - - Z 1017,5 6 0 0,0
18.01.2021 16:00:00 8,5 7,6 - - 13 7 - - Z 1018,4 22 0 0,0
18.01.2021 15:00:00 8,7 7,4 - - 13 7 - - Z 1019,4 40 0 0,0
18.01.2021 14:00:00 8,4 6,6 - - 11 6 - - Z 1020,6 22 0 0,0
18.01.2021 13:00:00 8,3 6,0 - - 11 6 - - Z 1021,7 22 0 0,0
18.01.2021 12:00:00 7,8 5,4 - - 11 6 - - ZZW 1023,0 30 0 0,0
18.01.2021 11:00:00 6,8 4,6 - - 8 4 - - ZZW 1023,8 35 0 0,0
18.01.2021 10:00:00 5,9 4,5 - - 8 4 - - Z 1024,2 35 0 0,0
18.01.2021 09:00:00 3,7 3,4 6,7 8,0 2 1 - - OZO 1024,4 23 0 0,0
18.01.2021 08:00:00 2,6 2,4 - - 2 1 - - OZO 1024,7 21 0 0,0
18.01.2021 07:00:00 2,2 1,8 - - 4 2 - - ONO 1025,0 10 0 0,0
18.01.2021 06:00:00 2,1 1,8 - - 2 1 - - ONO 1025,0 21 0 0,0
18.01.2021 05:00:00 1,9 1,6 - - 2 1 - - OZO 1025,3 14 0 0,0
18.01.2021 04:00:00 0,8 0,1 - - 2 1 - - ONO 1025,9 7 0 0,0
18.01.2021 03:00:00 2,1 1,7 - - 2 1 - - ZZO 1026,3 19 0 0,0
18.01.2021 02:00:00 1,5 0,9 - - 2 1 - - O 1027,0 14 0 0,0
18.01.2021 01:00:00 2,1 1,2 - - 2 1 - - Z 1027,3 12 0 0,0
18.01.2021 00:00:00 2,8 1,9 - - 9 5 - - Z 1027,5 15 - 0,0
17.01.2021 23:00:00 3,4 2,0 - - 8 4 - - Z 1027,9 22 0 0,0
17.01.2021 22:00:00 3,2 2,4 - - 5 3 - - Z 1028,0 14 0 0,0
17.01.2021 21:00:00 3,5 2,6 - - 4 2 - - ZZW 1028,7 15 0 0,0
17.01.2021 20:00:00 4,3 2,6 - - 2 1 - - NO 1028,6 21 0 0,0
17.01.2021 19:00:00 4,3 3,0 - - 2 1 - - ZZW 1028,3 21 0 0,0
17.01.2021 18:00:00 5,1 3,2 - - 2 1 - - W 1028,7 21 0 0,0
17.01.2021 17:00:00 5,4 3,4 - - 2 1 - - WNW 1028,6 23 0 0,0
17.01.2021 16:00:00 6,2 3,8 - - 2 1 - - ZZO 1028,0 24 0 0,0
17.01.2021 15:00:00 7,2 3,9 - - 4 2 - - WNW 1027,6 19 0 0,0
17.01.2021 14:00:00 7,2 4,2 - - 11 6 - - W 1027,6 27 0 0,0
17.01.2021 13:00:00 7,3 4,3 - - 9 5 - - WNW 1027,8 26 0 0,0
17.01.2021 12:00:00 7,1 4,3 - - 11 6 - - WNW 1028,0 26 0 0,0
17.01.2021 11:00:00 6,4 4,1 - - 9 5 - - W 1028,1 27 0 0,0
17.01.2021 10:00:00 4,8 3,4 - - 5 3 - - WZW 1027,5 29 0 0,0
17.01.2021 09:00:00 3,6 1,8 7,2 8,0 5 3 - - W 1026,7 28 0 0,0
17.01.2021 08:00:00 3,8 1,6 - - 5 3 - - NW 1025,7 29 0 0,0
17.01.2021 07:00:00 4,0 2,0 - - 9 5 - - W 1024,8 29 0 0,0
17.01.2021 06:00:00 5,1 2,8 - - 5 3 - - NW 1024,3 25 0 0,0
17.01.2021 05:00:00 4,7 2,3 - - 8 4 - - W 1023,6 22 0 0,0
17.01.2021 04:00:00 4,9 2,1 - - 11 6 - - W 1023,3 21 0 0,0
17.01.2021 03:00:00 3,6 1,6 - - 4 2 - - WZW 1022,9 18 0 0,0
17.01.2021 02:00:00 3,6 2,0 - - 4 2 - - WZW 1022,7 20 0 0,0
17.01.2021 01:00:00 2,8 1,2 - - 2 1 - - WNW 1022,6 22 0 0,0
17.01.2021 00:00:00 4,5 1,5 - - 2 1 - - W 1022,5 22 - 0,0
16.01.2021 23:00:00 4,8 0,4 - - 5 3 - - WZW 1022,0 24 0 0,0
16.01.2021 22:00:00 5,9 2,4 - - 9 5 - - WNW 1021,7 22 0 0,0
16.01.2021 21:00:00 7,1 4,5 - - 4 2 - - NW 1021,4 18 0 0,0
16.01.2021 20:00:00 6,6 4,7 - - 5 3 - - WNW 1021,2 16 0 0,0
16.01.2021 19:00:00 7,7 5,2 - - 11 6 - - WNW 1020,8 18 0 0,0
16.01.2021 18:00:00 8,2 5,4 - - 15 8 - - WNW 1019,9 19 0 0,0
16.01.2021 17:00:00 8,3 5,1 - - 16 9 - - WNW 1019,4 23 0 0,0
16.01.2021 16:00:00 8,6 5,1 - - 15 8 - - WNW 1018,9 22 0 0,0
16.01.2021 15:00:00 9,1 5,8 - - 11 6 - - WNW 1018,5 22 0 0,0
16.01.2021 14:00:00 9,4 6,1 - - 13 7 - - WNW 1018,2 26 30 0,0
16.01.2021 13:00:00 10,0 5,4 - - 21 11 - - WNW 1018,3 30 48 0,0
16.01.2021 12:00:00 9,5 6,4 - - 15 8 - - WNW 1018,4 29 24 0,0
16.01.2021 11:00:00 9,5 7,4 - - 16 9 - - WNW 1018,3 29 6 0,0
16.01.2021 10:00:00 9,7 8,2 - - 18 10 - - W 1017,4 27 0 0,0
16.01.2021 09:00:00 10,0 9,4 7,2 8,0 15 8 - - W 1016,7 40 0 0,2
16.01.2021 08:00:00 9,3 9,0 - - 15 8 - - Z 1016,2 5 0 0,2
16.01.2021 07:00:00 8,8 8,3 - - 18 10 - - Z 1017,1 28 0 2,0
16.01.2021 06:00:00 8,3 7,7 - - 21 11 - - Z 1018,8 4,0 0 0,8
16.01.2021 05:00:00 8,0 6,7 - - 16 9 - - Z 1020,0 5 0 1,4
16.01.2021 04:00:00 8,0 7,2 - - 18 10 - - Z 1021,2 7 0 1,2
16.01.2021 03:00:00 7,4 6,7 - - 18 10 - - ZZO 1022,7 5 0 3,6
16.01.2021 02:00:00 6,9 5,9 - - 16 9 - - ZZO 1023,8 7 0 2,8
16.01.2021 01:00:00 7,0 5,5 - - 18 10 - - ZZO 1024,6 4,9 0 0,8
16.01.2021 00:00:00 7,5 4,5 - - 21 11 - - ZZO 1025,9 35 - 0,0
15.01.2021 23:00:00 6,9 3,7 - - 18 10 - - ZO 1026,6 40 0 0,0
15.01.2021 22:00:00 6,3 2,8 - - 16 9 - - ZO 1027,5 40 0 0,0
15.01.2021 21:00:00 5,8 1,9 - - 13 7 - - ZO 1028,3 40 0 0,0
15.01.2021 20:00:00 5,3 1,6 - - 9 5 - - ZO 1028,9 45 0 0,0
15.01.2021 19:00:00 4,4 1,0 - - 8 4 - - ZZO 1029,2 35 0 0,0
15.01.2021 18:00:00 4,4 0,9 - - 5 3 - - ZO 1029,5 40 0 0,0
15.01.2021 17:00:00 4,2 0,5 - - 8 4 - - ZO 1029,6 40 0 0,0
15.01.2021 16:00:00 4,7 0,3 - - 9 5 - - ZO 1029,8 35 12 0,0
15.01.2021 15:00:00 5,1 0,1 - - 9 5 - - ZO 1030,1 40 18 0,0
15.01.2021 14:00:00 5,5 1,0 - - 9 5 - - ZO 1030,2 30 60 0,0
15.01.2021 13:00:00 5,1 0,7 - - 8 4 - - ZO 1031,0 25 60 0,0
15.01.2021 12:00:00 4,6 0,9 - - 2 1 - - NO 1031,6 16 12 0,0
15.01.2021 11:00:00 3,2 0,9 - - 0 0 - - N 1031,6 13 0 0,0

tt = temperatuur
td = dauwpunt
tt -20cm = temperatuur -20cm
tt -100cm = temperatuur -100cm
ff = windsnelheid
fx = windstoten
dd = windrichting
ppp = luchtdruk
vv = zicht
sd = Zonneschijnduur
rr = neerslag

Weerstations in de omgeving